Location: Elstree
(51.6403°N, 0.2969°W)
Time: 22:48:59
(UTC+00:00)

Tiangong - Pass Details

Date: 04 December 2022
Orbit: 382 x 386 km, 41.5° (Epoch: 06 February)

Event Time Altitude Azimuth Distance (km) Brightness Sun altitude
Rises 18:00:08 0° 235° (SW) 2,248 3.0 -18.6°
Reaches altitude 10° 18:03:00 10° 206° (SSW) 1,397 1.2 -19.0°
Maximum altitude 18:04:35 13° 176° (S) 1,222 0.5 -19.3°
Enters shadow 18:05:00 13° 167° (SSE) 1,235 0.4 -19.4°
